Location: downtown San Diego
(32.7310°N, 117.1990°W)
Time: 03:07:25
(UTC-08:00)

Cosmos 1867 - Pass Details

Date: 12 July 2018
Orbit: 773 x 803 km, 65.0° (Epoch: 18 December)

Event Time Altitude Azimuth Distance (km) Brightness Sun altitude
Rises 20:38:21 0° 203° (SSW) 3,238 6.6 -8.1°
Reaches altitude 10° 20:40:44 10° 202° (SSW) 2,317 5.9 -8.5°
Maximum altitude 20:46:03 80° 116° (ESE) 796 3.5 -9.4°
Drops below altitude 10° 20:51:27 10° 30° (NNE) 2,348 6.1 -10.4°
Sets 20:53:53 0° 30° (NNE) 3,285 6.8 -10.8°
